Location: DARK SKY Beskydy - Park tmavé oblohy, www.darkskybeskydy.cz
(49.4926°N, 18.5016°E)
Time: 17:18:31
(UTC+02:00)

Explorer 7 - Pass Details

Date: 22 July 2024
Orbit: 444 x 569 km, 50.3° (Epoch: 18 July)

Event Time Altitude Azimuth Distance (km) Brightness Sun altitude
Exits shadow 00:12:19 16° 102° (ESE) 1,586 8.9 -19.7°
Drops below altitude 10° 00:13:40 10° 88° (E) 1,963 9.5 -19.7°
Sets 00:16:18 0° 75° (ENE) 2,861 10.6 -19.8°
